Location: New Frontier Mobile Home Park
(32.8448°N, 116.9675°W)
Time: 22:13:10
(UTC+00:00)

NOSS 3-2 (C) - Pass Details

Date: 14 July 2020
Orbit: 798 x 1415 km, 63.4° (Epoch: 01 August)

Event Time Altitude Azimuth Distance (km) Brightness Sun altitude
Exits shadow 11:06:36 25° 188° (S) 1,588 4.2 -18.8°
Maximum altitude 11:09:44 62° 116° (ESE) 953 3.5 -18.3°
Drops below altitude 10° 11:15:39 10° 37° (NE) 2,637 7.0 -17.3°
Sets 11:18:23 0° 34° (NE) 3,671 8.0 -16.9°
